TimeCST,TemperatureF,Dew PointF,Humidity,Sea Level PressureIn,VisibilityMPH,Wind Direction,Wind SpeedMPH,Gust SpeedMPH,PrecipitationIn,Events,Conditions,WindDirDegrees,DateUTC
12:53 AM,23.0,16.0,74,30.22,10.0,SSE,4.6,-,N/A,,Clear,160,2012-12-22 06:53:00
1:53 AM,19.9,14.0,78,30.19,10.0,SE,5.8,-,N/A,,Clear,140,2012-12-22 07:53:00
2:53 AM,19.4,14.0,80,30.14,10.0,SE,4.6,-,N/A,,Clear,130,2012-12-22 08:53:00
3:53 AM,19.9,15.1,81,30.16,10.0,ESE,4.6,-,N/A,,Clear,110,2012-12-22 09:53:00
4:53 AM,19.9,14.0,78,30.14,10.0,ESE,4.6,-,N/A,,Clear,110,2012-12-22 10:53:00
5:53 AM,19.9,15.1,81,30.12,10.0,ESE,5.8,-,N/A,,Clear,120,2012-12-22 11:53:00
6:53 AM,19.9,14.0,78,30.11,10.0,SE,4.6,-,N/A,,Clear,130,2012-12-22 12:53:00
7:53 AM,19.9,14.0,78,30.10,10.0,SE,4.6,-,N/A,,Clear,130,2012-12-22 13:53:00
8:53 AM,21.9,16.0,78,30.09,10.0,SE,3.5,-,N/A,,Clear,130,2012-12-22 14:53:00
9:53 AM,27.0,19.0,72,30.06,10.0,SSE,5.8,-,N/A,,Clear,160,2012-12-22 15:53:00
10:53 AM,33.1,21.9,64,30.06,10.0,South,8.1,-,N/A,,Clear,190,2012-12-22 16:53:00
11:53 AM,36.0,23.0,59,30.02,10.0,SSW,4.6,-,N/A,,Clear,200,2012-12-22 17:53:00
12:53 PM,37.9,25.0,60,29.99,10.0,South,4.6,-,N/A,,Clear,190,2012-12-22 18:53:00
1:53 PM,39.9,25.0,55,29.96,10.0,Calm,Calm,-,N/A,,Clear,0,2012-12-22 19:53:00
2:53 PM,43.0,25.0,49,29.95,10.0,Calm,Calm,-,N/A,,Clear,0,2012-12-22 20:53:00
3:53 PM,41.0,27.0,57,29.94,10.0,South,5.8,-,N/A,,Clear,190,2012-12-22 21:53:00
4:53 PM,37.0,26.1,65,29.95,10.0,SW,5.8,-,N/A,,Clear,220,2012-12-22 22:53:00
5:53 PM,34.0,26.1,73,29.98,10.0,WSW,5.8,-,N/A,,Clear,250,2012-12-22 23:53:00
6:53 PM,35.1,26.1,70,29.98,10.0,SW,3.5,-,N/A,,Clear,230,2012-12-23 00:53:00
7:53 PM,32.0,27.0,82,29.99,10.0,NW,8.1,-,N/A,,Clear,310,2012-12-23 01:53:00
8:53 PM,30.0,25.0,82,30.01,9.0,NNW,10.4,-,N/A,,Clear,330,2012-12-23 02:53:00
9:53 PM,28.9,23.0,78,30.01,9.0,NNW,9.2,-,N/A,,Clear,340,2012-12-23 03:53:00
10:53 PM,28.0,21.9,78,30.01,8.0,NNW,8.1,-,N/A,,Clear,340,2012-12-23 04:53:00
11:53 PM,26.1,21.9,84,30.00,7.0,North,8.1,-,N/A,,Clear,350,2012-12-23 05:53:00